Regional Weather Roundup
Issued by NWS

Home | Current Version | Previous Version | Graphics & Text | Print | Product List | Glossary On
Versions: 1 2 3 4 5 6 7 8 9 10 11 12 13 14 15 16 17 18 19 20 21 22 23 24 25 26 27 28 29 30 31 32 33 34 35 36 37 38 39 40 41 42 43 44 45 46 47 48
000
ASUS45 KCYS 041710
RWRWY

WYOMING REGIONAL WEATHER ROUNDUP
NATIONAL WEATHER SERVICE CHEYENNE WY
1100 AM MDT FRI SEP 04 2015

NOTE:  "FAIR" INDICATES FEW OR NO CLOUDS BELOW 12,000 FEET
WITH NO SIGNIFICANT WEATHER AND/OR OBSTRUCTIONS TO VISIBILITY.

WYZ001-041800-
YELLOWSTONE NATIONAL PARK

CITY           SKY/WX    TMP DP  RH WIND       PRES   REMARKS
LK YELLOWSTONE   N/A     64  38  38 S7        30.04S
W YELLOWSTONE  NOT AVBL

$$
WYZ002>013-054>058-071-098>099-041800-
NORTHERN WYOMING

CITY           SKY/WX    TMP DP  RH WIND       PRES   REMARKS
JACKSON        FAIR      66  43  42 S7        29.97F
CODY           FAIR      57  46  67 NE8       29.96F
GREYBULL       FAIR      66  45  46 MISG      29.91F
WORLAND        FAIR      66  46  48 N6        29.92F
SHERIDAN       FAIR      68  44  42 N6        29.93F
BUFFALO        FAIR      68  46  45 E3        29.97F
GILLETTE       FAIR      72  50  45 W7        29.93R
HULETT         FAIR      72  52  49 NW5       29.93S
NEWCASTLE      FAIR      77  41  27 NW5       29.91S

$$
WYZ014>020-022>026-101>103-041800-
CENTRAL WYOMING

CITY           SKY/WX    TMP DP  RH WIND       PRES   REMARKS
BIG PINEY      FAIR      71  31  22 S15G29    30.05F
PINEDALE       FAIR      70  32  24 S10G18    30.07S
DUBOIS         CLOUDY    61  36  39 E7        30.04S
LANDER         FAIR      74  41  30 N5        29.92F
RIVERTON       FAIR      73  38  27 S7        29.94F
CASPER         FAIR      80  41  24 SW16G24   29.97F
DOUGLAS        FAIR      80  44  27 NW8       29.97R

$$
WYZ021-027>030-104>119-041800-
SOUTHERN WYOMING

CITY           SKY/WX    TMP DP  RH WIND       PRES   REMARKS
EVANSTON       FAIR      71  30  21 S21G31    30.04S
KEMMERER       FAIR      70  27  19 S15G24    30.06S
FORT BRIDGER   SUNNY     73  28  19 SW12G23   30.08S
ROCK SPRINGS   FAIR      71  35  26 S5        30.05F
DIXON          FAIR      73  40  30 S10G16    30.12S
RAWLINS        FAIR      76  32  20 SW10G20   30.08F
SARATOGA       FAIR      66  43  42 SE10      30.13S
LARAMIE        FAIR      72  41  32 SW15G22   30.15S
CHEYENNE       FAIR      81  36  19 W17G25    30.06S
TORRINGTON     FAIR      80  45  28 VRB5      29.92S
PINE BLUFFS    FAIR      82  34  17 W7        30.00F

$$


USA.gov is the U.S. government's official web portal to all federal, state and local government web resources and services.